H1 CPF 1 NER 2013 6 7 9 6581 glonass114 H2 0806703 9114 33468 2013 6 7 0 0 0 2013 6 10 23 45 0 900 1 1 0 0 0 H9 10 0 56450 0.00000 0 3859417.982 -12875161.271 -21670606.758 10 0 56450 900.00000 0 6221431.277 -13956540.981 -20414999.513 10 0 56450 1800.00000 0 8341520.935 -15120889.151 -18762545.258 10 0 56450 2700.00000 0 10180048.008 -16316126.564 -16745341.288 10 0 56450 3600.00000 0 11708809.970 -17485248.233 -14402585.271 10 0 56450 4500.00000 0 12911959.299 -18568753.745 -11779813.678 10 0 56450 5400.00000 0 13786407.045 -19507202.691 -8928015.480 10 0 56450 6300.00000 0 14341695.270 -20243787.305 -5902638.219 10 0 56450 7200.00000 0 14599344.859 -20726813.398 -2762506.071 10 0 56450 8100.00000 0 14591707.347 -20911984.400 431328.667 10 0 56450 9000.00000 0 14360370.469 -20764391.526 3616777.793 10 0 56450 9900.00000 0 13954185.945 -20260125.477 6731929.133 10 0 56450 10800.00000 0 13427004.031 -19387441.169 9716253.995 10 0 56450 11700.00000 0 12835211.662 -18147425.869 12511786.061 10 0 56450 12600.00000 0 12235179.084 -16554142.264 15064248.297 10 0 56450 13500.00000 0 11680723.531 -14634240.095 17324105.856 10 0 56450 14400.00000 0 11220697.379 -12426052.326 19247524.629 10 0 56450 15300.00000 0 10896802.709 -9978213.421 20797217.159 10 0 56450 16200.00000 0 10741724.248 -7347857.090 21943160.115 10 0 56450 17100.00000 0 10777659.107 -4598468.133 22663170.206 10 0 56450 18000.00000 0 11015304.793 -1797477.262 22943328.071 10 0 56450 18900.00000 0 11453347.768 986301.920 22778242.762 10 0 56450 19800.00000 0 12078473.792 3685288.346 22171152.242 10 0 56450 20700.00000 0 12865899.557 6235693.736 21133858.334 10 0 56450 21600.00000 0 13780403.420 8579922.675 19686497.524 10 0 56450 22500.00000 0 14777812.251 10668714.127 17857151.883 10 0 56450 23400.00000 0 15806882.377 12462936.546 15681307.322 10 0 56450 24300.00000 0 16811496.104 13934963.161 13201169.157 10 0 56450 25200.00000 0 17733081.975 15069571.264 10464847.625 10 0 56450 26100.00000 0 18513157.343 15864328.910 7525428.618 10 0 56450 27000.00000 0 19095886.488 16329453.845 4439947.169 10 0 56450 27900.00000 0 19430546.566 16487151.388 1268283.218 10 0 56450 28800.00000 0 19473797.277 16370459.761 -1927998.986 10 0 56450 29700.00000 0 19191658.175 16021652.106 -5086845.323 10 0 56450 30600.00000 0 18561109.595 15490263.030 -8146916.810 10 0 56450 31500.00000 0 17571248.933 14830823.338 -11048781.386 10 0 56450 32400.00000 0 16223952.577 14100398.979 -13736069.173 10 0 56450 33300.00000 0 14534014.516 13356038.337 -16156568.533 10 0 56450 34200.00000 0 12528754.627 12652235.947 -18263241.394 10 0 56450 35100.00000 0 10247111.858 12038519.838 -20015138.152 10 0 56450 36000.00000 0 7738258.984 11557264.456 -21378194.391 10 0 56450 36900.00000 0 5059795.735 11241821.549 -22325894.063 10 0 56450 37800.00000 0 2275594.528 11115047.945 -22839786.356 10 0 56450 38700.00000 0 -546612.492 11188292.438 -22909846.380 10 0 56450 39600.00000 0 -3337805.528 11460884.689 -22534672.622 10 0 56450 40500.00000 0 -6030302.199 11920147.976 -21721517.280 10 0 56450 41400.00000 0 -8560327.242 12541935.608 -20486148.629 10 0 56450 42300.00000 0 -10870420.478 13291668.783 -18852547.777 10 0 56450 43200.00000 0 -12911583.547 14125832.519 -16852445.259 10 0 56450 44100.00000 0 -14645076.535 14993866.876 -14524706.026 10 0 56450 45000.00000 0 -16043790.071 15840373.844 -11914574.453 10 0 56450 45900.00000 0 -17093136.329 16607546.761 -9072793.784 10 0 56450 46800.00000 0 -17791422.374 17237719.443 -6054617.054 10 0 56450 47700.00000 0 -18149691.103 17675926.949 -2918728.988 10 0 56450 48600.00000 0 -18191037.531 17872369.230 273899.792 10 0 56450 49500.00000 0 -17949430.345 17784672.860 3461203.433 10 0 56450 50400.00000 0 -17468089.593 17379854.605 6581232.432 10 0 56450 51300.00000 0 -16797490.119 16635903.195 9573361.921 10 0 56450 52200.00000 0 -15993076.168 15542911.896 12379472.564 10 0 56450 53100.00000 0 -15112784.515 14103713.597 14945080.574 10 0 56450 54000.00000 0 -14214481.421 12333991.147 17220394.763 10 0 56450 54900.00000 0 -13353421.912 10261857.805 19161280.180 10 0 56450 55800.00000 0 -12579838.646 7926924.949 20730109.919 10 0 56450 56700.00000 0 -11936761.732 5378895.502 21896489.225 10 0 56450 57600.00000 0 -11458160.865 2675741.136 22637838.576 10 0 56450 58500.00000 0 -11167487.331 -118461.439 22939825.216 10 0 56450 59400.00000 0 -11076676.508 -2935945.971 22796635.543 10 0 56450 60300.00000 0 -11185652.153 -5707824.612 22211083.689 10 0 56450 61200.00000 0 -11482352.781 -8366702.659 21194554.555 10 0 56450 62100.00000 0 -11943278.688 -10849232.797 19766782.572 10 0 56450 63000.00000 0 -12534536.506 -13098503.976 17955470.317 10 0 56450 63900.00000 0 -13213337.421 -15066166.786 15795754.063 10 0 56450 64800.00000 0 -13929886.264 -16714208.078 13329526.098 10 0 56450 65700.00000 0 -14629582.227 -18016301.984 10604626.329 10 0 56450 66600.00000 0 -15255438.816 -18958681.800 7673918.331 10 0 56450 67500.00000 0 -15750621.222 -19540497.184 4594267.216 10 0 56450 68400.00000 0 -16060994.152 -19773642.395 1425438.800 10 0 56450 69300.00000 0 -16137572.467 -19682063.377 -1771058.695 10 0 56450 70200.00000 0 -15938770.822 -19300573.370 -4933167.910 10 0 56450 71100.00000 0 -15432356.749 -18673227.326 -7999487.366 10 0 56450 72000.00000 0 -14597023.998 -17851323.970 -10910464.430 10 0 56450 72900.00000 0 -13423518.780 -16891120.062 -13609552.901 10 0 56450 73800.00000 0 -11915270.305 -15851353.445 -16044312.480 10 0 56450 74700.00000 0 -10088497.844 -14790679.495 -18167428.543 10 0 56450 75600.00000 0 -7971788.453 -13765129.126 -19937632.404 10 0 56450 76500.00000 0 -5605161.634 -12825695.464 -21320504.238 10 0 56450 77400.00000 0 -3038658.727 -12016150.819 -22289143.144 10 0 56450 78300.00000 0 -330514.624 -11371185.749 -22824691.495 10 0 56450 79200.00000 0 2455013.260 -10914948.449 -22916703.515 10 0 56450 80100.00000 0 5250069.366 -10660045.829 -22563350.918 10 0 56450 81000.00000 0 7985777.826 -10607048.234 -21771461.540 10 0 56450 81900.00000 0 10594867.431 -10744518.639 -20556389.980 10 0 56450 82800.00000 0 13014235.094 -11049565.077 -18941722.408 10 0 56450 83700.00000 0 15187341.738 -11488893.043 -16958820.876 10 0 56450 84600.00000 0 17066341.326 -12020313.479 -14646215.506 10 0 56450 85500.00000 0 18613854.571 -12594642.638 -12048856.049 10 0 56451 0.00000 0 19804313.803 -13157913.413 -9217237.184 10 0 56451 900.00000 0 20624823.119 -13653804.227 -6206414.070 10 0 56451 1800.00000 0 21075498.879 -14026182.739 -3074928.522 10 0 56451 2700.00000 0 21169276.120 -14221655.339 116334.214 10 0 56451 3600.00000 0 20931191.151 -14192014.810 3305334.382 10 0 56451 4500.00000 0 20397170.630 -13896481.141 6430088.821 10 0 56451 5400.00000 0 19612379.702 -13303640.297 9429879.941 10 0 56451 6300.00000 0 18629199.746 -12392998.177 12246438.522 10 0 56451 7200.00000 0 17504921.959 -11156083.526 14825076.761 10 0 56451 8100.00000 0 16299254.748 -9597052.659 17115749.409 10 0 56451 9000.00000 0 15071750.415 -7732769.939 19074022.465 10 0 56451 9900.00000 0 13879259.659 -5592360.064 20661930.898 10 0 56451 10800.00000 0 12773520.838 -3216250.250 21848709.370 10 0 56451 11700.00000 0 11798984.823 -654741.626 22611382.525 10 0 56451 12600.00000 0 10990966.170 2033831.302 22935204.169 10 0 56451 13500.00000 0 10374197.306 4785277.398 22813937.610 10 0 56451 14400.00000 0 9961845.510 7531972.350 22249972.337 10 0 56451 15300.00000 0 9755033.018 10205429.160 21254275.178 10 0 56451 16200.00000 0 9742879.634 12738910.051 19846177.065 10 0 56451 17100.00000 0 9903065.442 15069972.507 18052999.374 10 0 56451 18000.00000 0 10202889.586 17142844.645 15909526.811 10 0 56451 18900.00000 0 10600780.399 18910532.185 13457336.519 10 0 56451 19800.00000 0 11048193.244 20336570.219 10743995.792 10 0 56451 20700.00000 0 11491816.167 21396347.424 7822143.459 10 0 56451 21600.00000 0 11875990.371 22077948.116 4748472.175 10 0 56451 22500.00000 0 12145243.353 22382477.479 1582631.014 10 0 56451 23400.00000 0 12246827.555 22323856.751 -1613930.454 10 0 56451 24300.00000 0 12133156.998 21928097.373 -4779154.226 10 0 56451 25200.00000 0 11764038.385 21232084.963 -7851578.799 10 0 56451 26100.00000 0 11108601.732 20281924.463 -10771533.276 10 0 56451 27000.00000 0 10146848.098 19130916.417 -13482297.218 10 0 56451 27900.00000 0 8870747.987 17837249.645 -15931203.519 10 0 56451 28800.00000 0 7284842.929 16461507.605 -18070662.631 10 0 56451 29700.00000 0 5406323.520 15064093.369 -19859088.208 10 0 56451 30600.00000 0 3264579.148 13702681.467 -21261706.259 10 0 56451 31500.00000 0 900236.825 12429803.616 -22251232.115 10 0 56451 32400.00000 0 -1636272.188 11290669.553 -22808402.251 10 0 56451 33300.00000 0 -4286559.550 10321314.221 -22922350.736 10 0 56451 34200.00000 0 -6986464.975 9547148.847 -22590822.993 10 0 56451 35100.00000 0 -9668489.486 8981976.397 -21820222.687 10 0 56451 36000.00000 0 -12264376.452 8627512.429 -20625490.561 10 0 56451 36900.00000 0 -14707733.637 8473431.160 -19029817.297 10 0 56451 37800.00000 0 -16936587.700 8497934.471 -17064195.519 10 0 56451 38700.00000 0 -18895765.148 8668819.501 -14766819.225 10 0 56451 39600.00000 0 -20539000.659 8944999.475 -12182341.951 10 0 56451 40500.00000 0 -21830685.033 9278413.097 -9361007.848 10 0 56451 41400.00000 0 -22747179.957 9616241.310 -6357672.433 10 0 56451 42300.00000 0 -23277644.816 9903337.063 -3230732.331 10 0 56451 43200.00000 0 -23424341.399 10084764.518 -40985.133 10 0 56451 44100.00000 0 -23202404.358 10108339.433 3149557.910 10 0 56451 45000.00000 0 -22639087.813 9927062.316 6278882.484 10 0 56451 45900.00000 0 -21772520.767 9501340.550 9286180.906 10 0 56451 46800.00000 0 -20650024.625 8800904.671 12113036.776 10 0 56451 47700.00000 0 -19326064.571 7806337.091 14704561.016 10 0 56451 48600.00000 0 -17859921.797 6510148.091 17010457.028 10 0 56451 49500.00000 0 -16313185.010 4917353.026 18985994.376 10 0 56451 50400.00000 0 -14747166.968 3045525.901 20592872.325 10 0 56451 51300.00000 0 -13220354.415 924326.377 21799957.116 10 0 56451 52200.00000 0 -11785998.016 -1405480.788 22583879.399 10 0 56451 53100.00000 0 -10489942.654 -3893473.618 22929481.021 10 0 56451 54000.00000 0 -9368788.032 -6481428.714 22830103.270 10 0 56451 54900.00000 0 -8448455.504 -9105508.700 22287711.657 10 0 56451 55800.00000 0 -7743220.072 -11698691.334 21312855.182 10 0 56451 56700.00000 0 -7255246.916 -14193340.436 19924461.095 10 0 56451 57600.00000 0 -6974650.942 -16523812.881 18149468.979 10 0 56451 58500.00000 0 -6880076.002 -18628994.231 16022310.968 10 0 56451 59400.00000 0 -6939768.845 -20454658.450 13584247.667 10 0 56451 60300.00000 0 -7113102.188 -21955554.252 10882572.025 10 0 56451 61200.00000 0 -7352482.499 -23097131.645 7969696.079 10 0 56451 62100.00000 0 -7605561.863 -23856837.098 4902137.718 10 0 56451 63000.00000 0 -7817660.407 -24224923.543 1739426.755 10 0 56451 63900.00000 0 -7934296.752 -24204741.505 -1457048.612 10 0 56451 64800.00000 0 -7903719.221 -23812499.357 -4625232.605 10 0 56451 65700.00000 0 -7679330.308 -23076502.900 -7703606.717 10 0 56451 66600.00000 0 -7221901.297 -22035906.290 -10632384.907 10 0 56451 67500.00000 0 -6501482.621 -20739026.909 -13354675.691 10 0 56451 68400.00000 0 -5498928.283 -19241295.026 -15817588.341 10 0 56451 69300.00000 0 -4206968.890 -17602924.446 -17973261.464 10 0 56451 70200.00000 0 -2630786.798 -15886401.943 -19779793.942 10 0 56451 71100.00000 0 -788067.685 -14153900.743 -21202060.196 10 0 56451 72000.00000 0 1291475.043 -12464726.414 -22212393.991 10 0 56451 72900.00000 0 3567084.669 -10872901.967 -22791127.652 10 0 56451 73800.00000 0 5988414.770 -9424993.008 -22926976.359 10 0 56451 74700.00000 0 8497392.608 -8158263.658 -22617260.037 10 0 56451 75600.00000 0 11030415.918 -7099240.011 -21867958.494 10 0 56451 76500.00000 0 13520792.530 -6262740.777 -20693598.497 10 0 56451 77400.00000 0 15901321.987 -5651415.237 -19116974.665 10 0 56451 78300.00000 0 18106912.155 -5255807.263 -17168709.178 10 0 56451 79200.00000 0 20077122.140 -5054942.078 -14886658.422 10 0 56451 80100.00000 0 21758525.526 -5017410.411 -12315177.741 10 0 56451 81000.00000 0 23106795.341 -5102903.589 -9504258.352 10 0 56451 81900.00000 0 24088423.587 -5264134.015 -6508553.074 10 0 56451 82800.00000 0 24682003.355 -5449059.055 -3386310.055 10 0 56451 83700.00000 0 24879019.966 -5603313.340 -198235.587 10 0 56451 84600.00000 0 24684118.244 -5672745.641 2993691.398 10 0 56451 85500.00000 0 24114835.145 -5605951.932 6127429.285 10 0 56452 0.00000 0 23200809.681 -5356696.560 9142083.961 10 0 56452 900.00000 0 21982503.871 -4886117.783 11979095.456 10 0 56452 1800.00000 0 20509489.734 -4164624.772 14583376.518 10 0 56452 2700.00000 0 18838374.396 -3173403.321 16904381.948 10 0 56452 3600.00000 0 17030451.495 -1905468.089 18897087.190 10 0 56452 4500.00000 0 15149177.497 -366215.137 20522857.673 10 0 56452 5400.00000 0 13257578.849 1426548.541 21750192.628 10 0 56452 6300.00000 0 11415698.151 3443100.593 22555329.676 10 0 56452 7200.00000 0 9678185.644 5642803.943 22922699.207 10 0 56452 8100.00000 0 8092135.782 7975571.589 22845220.552 10 0 56452 9000.00000 0 6695258.103 10383735.432 22324434.851 10 0 56452 9900.00000 0 5514457.674 12804242.254 21370472.448 10 0 56452 10800.00000 0 4564883.060 15171086.517 20001855.676 10 0 56452 11700.00000 0 3849480.365 17417879.809 18245140.704 10 0 56452 12600.00000 0 3359070.930 19480450.908 16134405.153 10 0 56452 13500.00000 0 3072948.383 21299369.065 13710590.868 10 0 56452 14400.00000 0 2959969.197 22822286.082 11020713.991 10 0 56452 15300.00000 0 2980090.284 24005999.936 8116957.116 10 0 56452 16200.00000 0 3086288.387 24818154.100 5055660.579 10 0 56452 17100.00000 0 3226779.933 25238501.734 1896232.044 10 0 56452 18000.00000 0 3347447.293 25259681.773 -1300004.580 10 0 56452 18900.00000 0 3394368.523 24887474.402 -4470998.614 10 0 56452 19800.00000 0 3316343.186 24140525.087 -7555177.316 10 0 56452 20700.00000 0 3067306.879 23049548.607 -10492642.077 10 0 56452 21600.00000 0 2608531.673 21656046.386 -13226332.704 10 0 56452 22500.00000 0 1910518.598 20010590.796 -15703136.922 10 0 56452 23400.00000 0 954501.299 18170748.313 -17874923.298 10 0 56452 24300.00000 0 -266503.739 16198728.434 -19699477.496 10 0 56452 25200.00000 0 -1747145.937 14158856.693 -21141323.672 10 0 56452 26100.00000 0 -3469712.896 12114977.332 -22172415.119 10 0 56452 27000.00000 0 -5404628.832 10127894.029 -22772680.896 10 0 56452 27900.00000 0 -7511459.834 8252955.236 -22930417.934 10 0 56452 28800.00000 0 -9740385.226 6537884.684 -22642521.016 10 0 56452 29700.00000 0 -12034074.900 5020947.142 -21914546.120 10 0 56452 30600.00000 0 -14329895.385 3729525.473 -20760605.689 10 0 56452 31500.00000 0 -16562353.432 2679167.887 -19203097.533 10 0 56452 32400.00000 0 -18665675.806 1873144.492 -17272272.264 10 0 56452 33300.00000 0 -20576418.026 1302530.893 -15005647.178 10 0 56452 34200.00000 0 -22235993.166 946814.518 -12447277.664 10 0 56452 35100.00000 0 -23593015.030 774997.162 -9646900.008 10 0 56452 36000.00000 0 -24605357.460 747146.320 -6658962.159 10 0 56452 36900.00000 0 -25241843.332 816328.821 -3541561.488 10 0 56452 37800.00000 0 -25483492.254 930843.970 -355310.573 10 0 56452 38700.00000 0 -25324274.602 1036660.650 2837846.487 10 0 56452 39600.00000 0 -24771340.308 1079954.180 5975843.381 10 0 56452 40500.00000 0 -23844713.125 1009634.528 8997702.376 10 0 56452 41400.00000 0 -22576463.633 779757.880 11844722.428 10 0 56452 42300.00000 0 -21009396.278 351718.792 14461620.931 10 0 56452 43200.00000 0 -19195306.117 -303870.501 16797606.739 10 0 56452 44100.00000 0 -17192878.846 -1205693.552 18807363.642 10 0 56452 45000.00000 0 -15065322.429 -2360699.119 20451925.449 10 0 56452 45900.00000 0 -12877829.534 -3763570.459 21699426.282 10 0 56452 46800.00000 0 -10694976.562 -5396717.346 22525712.254 10 0 56452 47700.00000 0 -8578167.439 -7230791.757 22914803.422 10 0 56452 48600.00000 0 -6583227.946 -9225706.380 22859197.883 10 0 56452 49500.00000 0 -4758249.799 -11332114.264 22360012.733 10 0 56452 50400.00000 0 -3141773.154 -13493288.726 21426959.624 10 0 56452 51300.00000 0 -1761381.930 -15647326.110 20078155.576 10 0 56452 52200.00000 0 -632769.135 -17729580.601 18339772.622 10 0 56452 53100.00000 0 240690.042 -19675230.460 16245532.818 10 0 56452 54000.00000 0 867840.787 -21421869.507 13836057.888 10 0 56452 54900.00000 0 1269132.023 -22912016.395 11158085.518 10 0 56452 55800.00000 0 1475507.332 -24095437.295 8263566.949 10 0 56452 56700.00000 0 1526850.836 -24931185.149 5208662.818 10 0 56452 57600.00000 0 1470054.098 -25389270.230 2052656.310 10 0 56452 58500.00000 0 1356786.058 -25451891.888 -1143195.438 10 0 56452 59400.00000 0 1241060.688 -25114179.585 -4316849.468 10 0 56452 60300.00000 0 1176705.621 -24384411.827 -7406681.516 10 0 56452 61200.00000 0 1214839.315 -23283703.379 -10352683.225 10 0 56452 62100.00000 0 1401464.041 -21845173.545 -13097628.555 10 0 56452 63000.00000 0 1775277.193 -20112629.946 -15588186.554 10 0 56452 63900.00000 0 2365794.161 -18138822.692 -17775958.551 10 0 56452 64800.00000 0 3191863.006 -15983341.679 -19618419.629 10 0 56452 65700.00000 0 4260634.635 -13710244.653 -21079746.084 10 0 56452 66600.00000 0 5567032.994 -11385514.905 -22131512.830 10 0 56452 67500.00000 0 7093748.893 -9074454.371 -22753247.376 10 0 56452 68400.00000 0 8811759.060 -6839120.477 -22932829.717 10 0 56452 69300.00000 0 10681349.996 -4735913.236 -22666730.395 10 0 56452 70200.00000 0 12653605.021 -2813412.623 -21960082.064 10 0 56452 71100.00000 0 14672293.516 -1110555.808 -20826582.946 10 0 56452 72000.00000 0 16676084.202 344770.355 -19288233.765 10 0 56452 72900.00000 0 18600990.684 1536663.555 -17374912.873 10 0 56452 73800.00000 0 20382947.440 2461628.839 -15123797.360 10 0 56452 74700.00000 0 21960408.594 3128473.163 -12578641.082 10 0 56452 75600.00000 0 23276860.648 3557677.217 -9788923.350 10 0 56452 76500.00000 0 24283143.664 3780272.077 -6808884.735 10 0 56452 77400.00000 0 24939483.148 3836269.141 -3696468.920 10 0 56452 78300.00000 0 25217147.038 3772710.863 -512191.511 10 0 56452 79200.00000 0 25099657.889 3641425.865 2682041.693 10 0 56452 80100.00000 0 24583509.103 3496584.527 5824143.257 10 0 56452 81000.00000 0 23678355.091 3392159.629 8853055.308 10 0 56452 81900.00000 0 22406667.474 3379400.525 11709939.244 10 0 56452 82800.00000 0 20802872.005 3504428.528 14339320.238 10 0 56452 83700.00000 0 18912002.754 3806055.936 16690164.076 10 0 56452 84600.00000 0 16787930.208 4313921.348 18716865.463 10 0 56452 85500.00000 0 14491237.765 5047020.388 20380128.800 10 0 56453 0.00000 0 12086835.390 6012694.027 21647724.918 10 0 56453 900.00000 0 9641409.771 7206117.833 22495109.896 10 0 56453 1800.00000 0 7220817.006 8610312.883 22905894.472 10 0 56453 2700.00000 0 4887525.770 10196680.122 22872156.061 10 0 56453 3600.00000 0 2698215.906 11926034.753 22394587.816 10 0 56453 4500.00000 0 701631.764 13750099.151 21482482.288 10 0 56453 5400.00000 0 -1063222.073 15613392.347 20153550.291 10 0 56453 6300.00000 0 -2568468.891 17455438.180 18433578.364 10 0 56453 7200.00000 0 -3798275.276 19213200.689 16355931.218 10 0 56453 8100.00000 0 -4749257.069 20823645.799 13960908.320 10 0 56453 9000.00000 0 -5430360.095 22226322.907 11294966.470 10 0 56453 9900.00000 0 -5862221.710 23365858.765 8409822.901 10 0 56453 10800.00000 0 -6076040.920 24194259.507 5361455.736 10 0 56453 11700.00000 0 -6112005.377 24672924.384 2209020.752 10 0 56453 12600.00000 0 -6017342.113 24774286.485 -986294.668 10 0 56453 13500.00000 0 -5844074.875 24483011.269 -4162458.262 10 0 56453 14400.00000 0 -5646583.244 23796702.040 -7257797.157 10 0 56453 15300.00000 0 -5479067.229 22726082.141 -10212196.001 10 0 56453 16200.00000 0 -5393025.041 21294645.596 -12968265.480 10 0 56453 17100.00000 0 -5434851.269 19537790.150 -15472458.277 10 0 56453 18000.00000 0 -5643657.586 17501468.459 -17676110.536 10 0 56453 18900.00000 0 -6049408.753 15240413.266 -19536388.547 10 0 56453 19800.00000 0 -6671453.409 12816010.209 -21017122.260 10 0 56453 20700.00000 0 -7517512.471 10293906.611 -22089509.464 10 0 56453 21600.00000 0 -8583168.756 7741455.486 -22732677.113 10 0 56453 22500.00000 0 -9851880.410 5225100.744 -22934088.985 10 0 56453 23400.00000 0 -11295518.666 2807812.040 -22689791.785 10 0 56453 24300.00000 0 -12875408.517 546675.484 -22004494.894 10 0 56453 25200.00000 0 -14543829.750 -1509260.113 -20891481.986 10 0 56453 26100.00000 0 -16245916.286 -3320792.324 -19372355.969 10 0 56453 27000.00000 0 -17921875.009 -4859954.909 -17476621.809 10 0 56453 27900.00000 0 -19509431.586 -6110931.136 -15241114.906 10 0 56453 28800.00000 0 -20946400.913 -7070453.352 -12709285.782 10 0 56453 29700.00000 0 -22173274.376 -7747673.105 -9930354.724 10 0 56453 30600.00000 0 -23135715.063 -8163508.464 -6958352.669 10 0 56453 31500.00000 0 -23786855.682 -8349497.143 -3851067.201 10 0 56453 32400.00000 0 -24089302.103 -8346205.082 -668914.419 10 0 56453 33300.00000 0 -24016757.767 -8201258.945 2526240.833 10 0 56453 34200.00000 0 -23555200.177 -7967086.908 5672292.734 10 0 56453 35100.00000 0 -22703559.642 -7698464.486 8708106.089 10 0 56453 36000.00000 0 -21473871.545 -7449970.281 11574707.582 10 0 56453 36900.00000 0 -19890895.668 -7273460.173 14216432.966 10 0 56453 37800.00000 0 -17991218.601 -7215667.441 16582007.647 10 0 56453 38700.00000 0 -15821876.870 -7316030.744 18625539.725 10 0 56453 39600.00000 0 -13438558.511 -7604841.960 20307406.385 10 0 56453 40500.00000 0 -10903458.148 -8101792.133 21595017.036 10 0 56453 41400.00000 0 -8282874.765 -8814976.923 22463439.087 10 0 56453 42300.00000 0 -5644651.901 -9740403.453 22895874.987 10 0 56453 43200.00000 0 -3055566.016 -10862019.491 22883982.090 10 0 56453 44100.00000 0 -578770.656 -12152264.053 22428029.802 10 0 56453 45000.00000 0 1728598.406 -13573116.809 21536891.425 10 0 56453 45900.00000 0 3817558.888 -15077602.932 20227871.084 10 0 56453 46800.00000 0 5649071.158 -16611691.139 18526369.033 10 0 56453 47700.00000 0 7195407.719 -18116506.158 16465391.543 10 0 56453 48600.00000 0 8441047.336 -19530763.766 14084914.433 10 0 56453 49500.00000 0 9383057.827 -20793327.007 11431111.921 10 0 56453 50400.00000 0 10030952.545 -21845776.924 8555465.248 10 0 56453 51300.00000 0 10406027.678 -22634890.213 5513767.768 10 0 56453 52200.00000 0 10540209.042 -23114919.876 2365045.373 10 0 56453 53100.00000 0 10474457.607 -23249582.791 -829586.954 10 0 56453 54000.00000 0 10256801.567 -23013670.323 -4008110.406 10 0 56453 54900.00000 0 9940078.563 -22394213.570 -7108806.311 10 0 56453 55800.00000 0 9579483.864 -21391153.579 -10071455.158 10 0 56453 56700.00000 0 9230028.583 -20017487.463 -12838507.152 10 0 56453 57600.00000 0 8944015.809 -18298883.395 -15356201.341 10 0 56453 58500.00000 0 8768641.795 -16272779.713 -17575611.276 10 0 56453 59400.00000 0 8743824.001 -13987005.010 -19453596.855 10 0 56453 60300.00000 0 8900348.260 -11497976.010 -20953643.828 10 0 56453 61200.00000 0 9258413.798 -8868547.795 -22046574.690 10 0 56453 62100.00000 0 9826638.116 -6165605.281 -22711117.303 10 0 56453 63000.00000 0 10601564.404 -3457495.553 -22934320.305 10 0 56453 63900.00000 0 11567692.996 -811407.381 -22711807.253 10 0 56453 64800.00000 0 12698036.419 1709193.759 -22047864.558 10 0 56453 65700.00000 0 13955175.562 4046969.113 -20955361.291 10 0 56453 66600.00000 0 15292773.361 6152849.071 -19455502.131 10 0 56453 67500.00000 0 16657483.089 7987826.106 -17577417.904 10 0 56453 68400.00000 0 17991171.574 9524324.251 -15357601.196 10 0 56453 69300.00000 0 19233364.157 10747088.689 -12839197.703 10 0 56453 70200.00000 0 20323808.608 11653559.243 -10071166.801 10 0 56453 71100.00000 0 21205049.954 12253713.173 -7107327.537 10 0 56453 72000.00000 0 21824907.417 12569385.024 -4005308.775 10 0 56453 72900.00000 0 22138748.608 12633093.405 -825424.211 10 0 56453 73800.00000 0 22111464.583 12486425.491 2370505.375 10 0 56453 74700.00000 0 21719061.939 12178048.657 5520358.992 10 0 56453 75600.00000 0 20949804.340 11761434.560 8562927.331 10 0 56453 76500.00000 0 19804854.948 11292392.940 11439105.491 10 0 56453 77400.00000 0 18298392.439 10826520.362 14093042.772 10 0 56453 78300.00000 0 16457195.431 10416672.465 16473226.965 10 0 56453 79200.00000 0 14319712.578 10110566.966 18533482.077 10 0 56453 80100.00000 0 11934657.097 9948618.858 20233860.320 10 0 56453 81000.00000 0 9359184.241 9962099.125 21541411.606 10 0 56453 81900.00000 0 6656727.337 10171694.442 22430816.314 10 0 56453 82800.00000 0 3894582.115 10586528.288 22884869.824 10 0 56453 83700.00000 0 1141339.052 11203684.458 22894810.228 10 0 56453 84600.00000 0 -1535730.495 12008252.954 22460483.534 10 0 56453 85500.00000 0 -4073226.818 12973896.349 21590343.633 99